Location: Limerick
(52.6800°N, 8.6400°W)
Time: 07:24:48
(UTC+01:00)

Daily predictions for brighter satellites

Satellite Brightness Start Highest point End
(mag) Time Altitude Azimuth Time Altitude Azimuth Time Altitude Azimuth
Spot 2 Rocket 4.3 20:01:01 10° ESE 20:05:28 33° ENE 20:09:57 10° N
Lacrosse 5 4.5 20:02:59 10° W 20:06:13 17° SW 20:09:26 10° SSW
Cosmos 2181 Rocket 4.0 20:01:29 10° N 20:07:46 81° E 20:13:56 10° SSE
Cosmos 1271 Rocket 2.7 20:04:33 10° S 20:08:18 63° E 20:12:08 10° NNE
Cosmos 1378 3.1 20:05:21 10° N 20:09:08 67° ENE 20:12:54 10° SSE
Meteor 1-24 Rocket 4.1 20:03:35 10° N 20:09:27 50° ENE 20:15:10 10° SE
Cosmos 1898 Rocket 4.3 20:05:01 10° NNW 20:10:07 57° WSW 20:15:10 10° S
USA 186 3.0 20:10:44 10° ESE 20:12:19 15° ENE 20:13:51 10° NNE
Cosmos 1825 Rocket 4.1 20:08:57 10° NNW 20:13:20 67° W 20:17:43 10° S
YAOGAN 6 4.5 20:15:02 10° E 20:17:05 15° ENE 20:19:09 10° NNE
Cosmos 1814 Rocket 4.2 20:14:31 10° S 20:19:25 46° ESE 20:24:20 10° NE
Cosmos 990 Rocket 4.4 20:15:11 10° NNW 20:20:21 69° WSW 20:25:28 10° SSE
Cosmos 1125 Rocket 3.9 20:15:33 10° NNW 20:20:40 48° ENE 20:25:48 10° SE
Cosmos 2322 Rocket 4.4 20:18:37 10° NNW 20:20:59 13° N 20:23:22 10° NE
Cosmos 332 Rocket 3.8 20:16:36 10° SSW 20:21:30 83° ESE 20:26:23 10° NNE
Cosmos 1544 4.5 20:19:15 10° SE 20:21:51 19° E 20:24:27 10° NE
Cosmos 1356 Rocket 3.5 20:19:04 10° N 20:23:20 62° ENE 20:27:36 10° SSE
USA 81 4.0 20:18:11 10° N 20:23:32 81° E 20:28:49 10° S
Cosmos 1943 Rocket 3.4 20:19:08 10° NW 20:24:23 43° WSW 20:29:38 10° S
FREGAT/IRIS 3.1 20:23:16 10° S 20:26:17 63° WSW 20:29:19 10° NNW
MOS 1-B Rocket 4.2 20:21:00 10° SE 20:26:44 48° ENE 20:32:07 10° N
Cosmos 371 Rocket 3.3 20:22:04 10° SSW 20:26:57 79° ESE 20:31:53 10° NNE
CZ-2D R/B 3.4 20:23:38 10° SSE 20:27:20 52° ENE 20:31:05 10° N
ATLAS 2AS CENTAUR R/B 3.6 20:21:42 10° NW 20:29:35 48° NNE 20:36:35 12° E
Cosmos 2074 Rocket 4.2 20:26:09 10° SSE 20:32:04 49° E 20:38:01 10° NNE
Cosmos 1980 Rocket 3.9 20:30:40 10° NNW 20:34:33 19° NNE 20:38:26 10° ENE
Cosmos 1697 Rocket 4.1 20:30:04 10° NNW 20:34:36 24° NE 20:38:37 12° E
Cosmos 372 Rocket 4.2 20:30:37 10° NNW 20:35:47 54° ENE 20:40:56 10° SE
COSMO-SKYMED 1 3.9 20:32:31 10° N 20:36:40 44° WNW 20:40:47 10° SW
Envisat 3.2 20:32:36 10° SE 20:37:29 50° ENE 20:42:25 10° N
NOSS 3-1 (A) 4.2 20:31:39 10° NW 20:38:59 79° SW 20:47:15 10° SE
SJ-6B 3.1 20:35:08 10° S 20:39:08 70° WSW 20:43:04 10° NNW
H-2A R/B 3.9 20:38:16 10° ENE 20:40:27 13° NE 20:42:41 10° NNE
Cosmos 1709 Rocket 4.3 20:34:15 10° SSW 20:40:37 75° WNW 20:47:03 10° N
Cosmos 1953 4.0 20:40:39 15° E 20:41:05 16° E 20:43:31 10° NE
Meteor 2-5 Rocket 4.2 20:36:21 10° NNW 20:42:15 71° W 20:48:00 10° S
Helios 1A 4.3 20:40:49 16° E 20:42:53 22° ENE 20:46:08 10° N
Cosmos 1356 4.0 20:40:43 10° N 20:44:01 37° ENE 20:46:21 16° SE
Elektron 1 4.3 20:47:36 10° NW 20:51:40 64° SW 20:53:41 18° SE
Nadezhda 3 Rocket 4.1 20:46:46 10° N 20:53:00 55° ENE 20:59:09 10° SSE
Meteor 1-22 Rocket 4.2 20:48:36 10° S 20:54:09 57° E 20:59:31 10° NNE
SL-16 R/B 4.3 20:54:27 10° NNW 20:57:40 15° NNE 21:00:53 10° NE
Cosmos 1726 Rocket 4.2 20:53:30 10° SSW 20:57:48 60° WNW 21:02:07 10° N
Cosmos 468 Rocket 4.4 20:53:32 10° SW 20:58:45 68° WNW 21:04:03 10° NNE
Resurs 1-3 3.5 20:54:36 10° SSE 20:59:00 85° ENE 21:03:26 10° NNW
Cosmos 841 Rocket 3.4 20:54:07 10° S 20:59:11 63° ESE 21:04:18 10° NNE
COSMOS 2406 3.5 20:58:51 10° S 21:04:10 42° ESE 21:09:33 10° NE
Cosmos 389 Rocket 4.2 21:01:20 10° SW 21:04:34 35° WNW 21:07:50 10° N
Cosmos 2184 Rocket 4.0 21:00:56 10° S 21:07:14 80° E 21:13:39 10° NNE
USA 267 3.6 21:04:43 13° ENE 21:10:36 62° N 21:17:03 10° W
Cosmos 1610 Rocket 4.5 21:08:53 10° S 21:15:11 68° E 21:21:33 10° NNE
Cosmos 1076 Rocket 4.1 21:11:11 10° N 21:15:18 38° ENE 21:16:38 30° ESE
Cosmos 2369 4.0 21:10:16 10° NNW 21:15:49 52° NE 21:18:45 27° ESE
Cosmos 304 Rocket 3.6 21:11:02 10° SSW 21:15:49 78° ESE 21:20:39 10° NNE
ARGOS 4.1 21:15:18 24° E 21:17:20 32° ENE 21:22:05 10° N
Resurs 01 Rocket 2.1 21:12:59 10° S 21:17:23 63° WSW 21:21:48 10° NNW
GP-B 3.0 21:14:24 10° N 21:18:52 77° E 21:23:19 10° S
Cosmos 1763 Rocket 3.7 21:15:24 10° SSW 21:20:31 74° WNW 21:25:45 10° NNE
Cosmos 1766 3.2 21:16:40 10° S 21:20:36 87° W 21:24:32 10° N
Cosmos 2084 3.1 21:17:41 10° SSW 21:21:38 61° SE 21:23:50 23° ENE
Cosmos 1758 3.6 21:21:52 34° SE 21:23:00 43° E 21:26:50 10° NNE
Cosmos 540 Rocket 3.5 21:19:30 10° S 21:24:28 55° ESE 21:29:29 10° NNE
Cosmos 2228 4.3 21:27:07 10° SW 21:31:16 42° WNW 21:35:25 10° N
Cosmos 1939 Rocket 2.8 21:29:24 25° S 21:31:36 81° WSW 21:35:35 10° NNW
Cosmos 1408 Rocket 4.3 21:28:00 10° N 21:31:58 33° ENE 21:32:12 33° ENE
CZ-4B DEB 4.4 21:35:54 20° NNE 21:35:54 20° NNE 21:37:06 10° N
SL-8 Rocket 4.5 21:33:12 30° ESE 21:35:05 37° E 21:40:40 10° NNE
Cosmos 1812 Rocket 3.5 21:31:00 10° S 21:35:27 82° E 21:39:59 10° NNE
Meteor 2-19 Rocket 4.3 21:30:05 10° S 21:36:08 81° E 21:42:14 10° NNE
SJ-11-01 4.4 21:38:07 21° S 21:41:16 75° WSW 21:46:02 10° NNW
USA 186 3.6 21:42:03 17° SW 21:43:02 21° W 21:45:00 10° NW
Spot 2 Rocket 4.4 21:39:28 10° S 21:44:19 46° W 21:49:12 10° NNW
Cosmos 1818 4.3 21:39:19 10° NW 21:44:32 42° NNE 21:46:24 31° ENE
Cosmos 1674 2.7 21:41:03 10° NNW 21:44:49 76° W 21:45:54 44° S
Terra 3.6 21:44:55 18° NE 21:44:57 18° NE 21:48:04 10° NNE
SPOT 1/Viking Rocket 4.4 21:44:52 30° ENE 21:45:32 31° ENE 21:50:03 10° N
Cosmos 836 Rocket 4.4 21:43:12 10° SSW 21:48:29 86° ESE 21:53:47 10° NNE
Okean 3 Rocket 3.5 21:43:57 10° N 21:48:30 90° ESE 21:50:02 41° S
BREEZE-M DEB (TANK) 4.1 21:26:46 10° W 21:48:33 74° S 21:51:13 36° ESE
BREEZE-M DEB (TANK) 4.1 21:43:05 10° SW 21:49:28 27° S 21:49:28 27° S
SAR-Lupe-4 4.5 21:50:51 36° NE 21:50:51 36° NE 21:53:33 10° N
YAOGAN 6 2.8 21:49:17 45° SSW 21:50:11 65° WSW 21:53:48 10° NNW
Cosmos 2278 3.6 21:45:46 10° NNW 21:51:29 81° ENE 21:53:30 42° SE
GEOS 3 Rocket 3.9 21:46:37 10° NE 21:51:47 45° SE 21:56:55 10° SSW
Cosmos 962 Rocket 4.4 21:46:06 10° S 21:52:26 74° E 21:58:49 10° NNE
Cosmos 1626 4.1 21:49:55 10° NNE 21:51:28 18° NE 21:51:28 18° NE
Cosmos 1544 4.4 21:53:18 10° SW 21:56:44 40° WNW 22:00:11 10° N
Cosmos 1805 3.7 21:53:37 10° SSW 21:57:29 59° WNW 22:01:22 10° N
Cosmos 1766 Rocket 3.5 21:53:31 10° N 21:57:51 62° ENE 21:57:57 62° E
Cosmos 783 Rocket 4.4 21:59:05 36° S 22:01:02 61° ESE 22:06:11 10° NNE
Meteor 2-15 4.3 21:55:40 10° N 22:01:46 83° E 22:04:18 37° SSE
SL-08 RB Rocket 4.0 22:02:34 47° ENE 22:02:34 47° ENE 22:06:45 10° N
BREEZE-M DEB (TANK) 4.3 21:59:26 10° W 22:04:11 65° S 22:10:58 31° ESE
Cosmos 1733 4.1 22:06:16 39° NNE 22:06:16 39° NNE 22:08:47 10° NNE
SPOT 5 3.1 22:06:55 45° NE 22:06:55 45° NE 22:10:50 10° N
Cosmos 2322 Rocket 3.6 22:02:37 10° NNW 22:07:13 25° NE 22:08:34 23° ENE
Cosmos 2151 4.4 22:04:19 10° N 22:07:03 27° NE 22:07:03 27° NE
Meteor 2-14 Rocket 4.5 22:10:52 50° SE 22:11:51 56° E 22:17:50 10° NNE
Cosmos 2154 Rocket 4.3 22:06:01 10° SSW 22:12:11 66° WNW 22:18:29 10° N
ERS-1 Rocket 2.9 22:11:40 59° SSE 22:12:40 89° ENE 22:17:43 10° NNW
Meteor 2-21 Rocket 4.4 22:12:21 50° SE 22:13:34 60° E 22:19:36 10° NNE
Cosmos 1470 3.5 22:14:48 44° NNE 22:14:48 44° NNE 22:17:38 10° NNE
Cosmos 1953 2.7 22:16:20 52° SW 22:17:02 63° WNW 22:21:06 10° N
Cosmos 2360 Rocket 4.1 22:13:20 10° NNW 22:17:10 18° NNE 22:19:07 15° NE
MetOp-B 4.0 22:16:15 58° SSE 22:17:23 89° ENE 22:22:47 10° NNW
Helios 1A 3.6 22:17:27 46° SW 22:18:10 53° W 22:22:17 10° NNW
H-2A R/B 2.0 22:18:52 59° ENE 22:18:52 59° ENE 22:23:52 10° N
Cosmos 1697 Rocket 2.6 22:13:46 10° NNW 22:19:30 79° ENE 22:20:21 64° ESE
Cosmos 1980 Rocket 2.4 22:14:19 10° NNW 22:19:52 54° NE 22:20:28 52° ENE
Cosmos 2341 Rocket 4.1 22:14:39 10° SSW 22:20:51 77° W 22:27:09 10° N
ATLAS 2AS CENTAUR R/B 3.0 22:13:12 10° NW 22:21:21 82° SW 22:24:02 46° SSE
Helios 1B rocket 3.5 22:17:48 10° NNE 22:20:22 36° NNE 22:20:22 36° NNE
Cosmos 1656 3.8 22:24:14 10° NW 22:29:54 69° WSW 22:30:53 57° SSW
Cosmos 2084 Rocket 4.2 22:28:32 10° NW 22:31:19 45° NW 22:31:19 45° NW
NOSS 3-4 (A) 4.1 22:26:28 10° NW 22:33:06 54° NNE 22:35:04 42° ENE
NOSS 3-4 (C) 4.1 22:26:34 10° NW 22:33:12 53° NNE 22:35:11 42° ENE
SL-14 R/B 4.3 22:34:47 10° NNW 22:37:50 45° NW 22:37:50 45° NW
SL-16 R/B 3.1 22:38:17 10° NNW 22:43:32 36° NE 22:43:41 36° NE
Cosmos 1959 Rocket 4.4 22:45:37 60° SSW 22:46:53 88° WNW 22:53:13 10° N
Cosmos 1400 Rocket 4.4 22:42:55 10° N 22:45:11 30° N 22:45:11 30° N
COSMOS 2406 4.2 22:43:00 10° WSW 22:48:29 46° NW 22:54:03 10° NNE
H-2A R/B 4.1 22:50:31 21° NNE 22:50:31 21° NNE 22:52:39 10° N
Cosmos 292 Rocket 4.1 22:49:52 65° NW 22:49:52 65° NW 22:54:39 10° NNE
Cosmos 2366 rocket 3.9 22:49:45 67° S 22:50:41 90° E 22:57:02 10° N
Cosmos 2285 Rocket 3.9 22:50:09 65° S 22:51:11 84° ESE 22:57:40 10° NNE
Cosmos 2218 Rocket 3.9 22:49:53 58° SSW 22:51:13 83° W 22:57:28 10° N
USA 267 3.3 22:52:04 59° E 22:53:22 76° NNE 22:59:55 10° WNW
Meteor 1-11 4.2 22:47:48 10° NNW 22:53:38 77° W 22:53:56 75° SW
SL-08 R/B 4.4 22:56:08 71° SSW 22:56:55 87° W 23:03:14 10° N
ARGOS 3.6 22:56:49 51° WSW 22:57:22 54° W 23:02:43 10° NNW
Iridium 4 Rocket 4.1 22:59:29 47° N 22:59:29 47° N 23:03:00 10° N
Cosmos 1727 Rocket 4.4 23:07:19 10° NNW 23:13:27 56° W 23:14:24 51° SW
Cosmos 1833 Rocket 4.1 23:23:19 28° NE 23:23:19 28° NE 23:25:55 10° NNE
Terra 3.0 23:23:48 41° NNW 23:23:48 41° NNW 23:26:54 10° NNW
Cosmos 2219 Rocket 4.2 23:20:30 10° NNW 23:24:14 18° NNE 23:25:31 17° NE
SPOT 1/Viking Rocket 4.4 23:25:31 46° WNW 23:25:31 46° WNW 23:29:49 10° NNW
Cosmos 1818 4.4 23:22:59 10° NW 23:27:02 46° WNW 23:27:02 46° WNW
GEOS 3 Rocket 4.2 23:24:39 10° NE 23:29:56 57° NW 23:35:12 10° WSW
CZ-2C R/B 4.4 23:31:15 33° NNE 23:31:15 33° NNE 23:35:08 10° N
Cosmos 2082 Rocket 3.4 23:39:58 34° NNE 23:39:58 34° NNE 23:43:08 10° NNE
Cosmos 2056 Rocket 4.5 23:36:52 10° NNW 23:40:41 46° NNW 23:40:41 46° NNW
Cosmos 2123 Rocket 4.3 23:39:26 10° N 23:44:24 59° N 23:44:24 59° N
Cosmos 2322 Rocket 3.0 23:46:25 10° NNW 23:50:22 47° NNW 23:50:22 47° NNW
